IK5WWP Weather Reports


Display with metric or nautical units.
time (UTC)temp
F
wind
direction
speed
MPH
gust
MPH
rain 1hr
in
rain 24hr
in
rain mn
in
humidity
%
barometer
mb
20260905160318 85 60 2.0 6.0 0.00 0.00 0.00 61 1016.1
20260905155418 85 66 3.0 6.0 0.00 0.00 0.00 60 1015.9
20260905154518 86 47 3.0 6.0 0.00 0.00 0.00 60 1015.7
20260905153618 87 69 2.0 4.0 0.00 0.00 0.00 57 1015.9
20260905152718 87 71 1.0 4.0 0.00 0.00 0.00 58 1015.8
20260905151818 88 117 2.0 4.0 0.00 0.00 0.00 57 1015.7
20260905150918 87 111 2.0 6.0 0.00 0.00 0.00 57 1015.9
20260905150018 88 90 2.0 4.0 0.00 0.00 0.00 54 1015.7
20260905145119 89 93 1.0 6.0 0.00 0.00 0.00 54 1015.7
20260905144218 89 102 1.0 4.0 0.00 0.00 0.00 53 1015.7
20260905143318 89 107 1.0 4.0 0.00 0.00 0.00 53 1016.0
20260905142418 89 59 0.0 4.0 0.00 0.00 0.00 54 1016.0
20260905141519 89 69 2.0 4.0 0.00 0.00 0.00 53 1015.9
20260905140618 89 97 1.0 4.0 0.00 0.00 0.00 53 1016.0
20260905135718 89 127 2.0 7.0 0.00 0.00 0.00 54 1016.1
20260905133918 90 85 1.0 4.0 0.00 0.00 0.00 52 1016.2
20260905133018 89 48 2.0 6.0 0.00 0.00 0.00 51 1016.4
20260905132118 89 73 3.0 6.0 0.00 0.00 0.00 52 1016.4
20260905131218 91 85 1.0 4.0 0.00 0.00 0.00 50 1016.6
20260905130318 92 110 1.0 4.0 0.00 0.00 0.00 49 1016.7
20260905125418 91 96 2.0 6.0 0.00 0.00 0.00 50 1016.7
20260905123619 90 53 1.0 9.0 0.00 0.00 0.00 50 1016.8
20260905122718 90 62 2.0 4.0 0.00 0.00 0.00 52 1017.1
20260905121818 92 86 1.0 8.0 0.00 0.00 0.00 49 1017.0
20260905120918 91 63 2.0 6.0 0.00 0.00 0.00 50 1017.0
20260905120018 89 39 3.0 7.0 0.00 0.00 0.00 52 1016.9
20260905115118 90 62 2.0 4.0 0.00 0.00 0.00 52 1017.4
20260905114218 90 85 2.0 4.0 0.00 0.00 0.00 54 1017.4
20260905113318 92 58 1.0 4.0 0.00 0.00 0.00 53 1017.2
20260905110618 89 64 1.0 2.0 0.00 0.00 0.00 56 1017.2
20260905105718 88 39 1.0 4.0 0.00 0.00 0.00 58 1017.4
20260905104818 88 80 2.0 4.0 0.00 0.00 0.00 57 1017.3
20260905103919 87 57 1.0 7.0 0.00 0.00 0.00 60 1017.3
20260905103018 88 122 2.0 6.0 0.00 0.00 0.00 57 1017.4
20260905102119 86 63 2.0 4.0 0.00 0.00 0.00 60 1017.3
20260905101219 88 96 2.0 4.0 0.00 0.00 0.00 58 1017.6
20260905100318 87 121 2.0 7.0 0.00 0.00 0.00 60 1017.4
20260905095418 87 108 1.0 4.0 0.00 0.00 0.00 59 1017.6
20260905094518 86 138 3.0 4.0 0.00 0.00 0.00 60 1017.6
20260905093619 85 72 3.0 4.0 0.00 0.00 0.00 62 1017.4
20260905092719 85 131 2.0 4.0 0.00 0.00 0.00 63 1017.6
20260905091818 84 100 2.0 4.0 0.00 0.00 0.00 64 1017.7
20260905090919 83 98 0.0 4.0 0.00 0.00 0.00 65 1017.7
20260905090019 82 120 2.0 4.0 0.00 0.00 0.00 65 1017.9
20260905085118 82 132 1.0 4.0 0.00 0.00 0.00 65 1017.5
20260905084219 81 135 2.0 4.0 0.00 0.00 0.00 63 1017.6
20260905083319 80 134 1.0 4.0 0.00 0.00 0.00 64 1017.5
20260905082419 79 117 2.0 2.0 0.00 0.00 0.00 65 1017.5
20260905081519 77 127 2.0 4.0 0.00 0.00 0.00 66 1017.6
20260905080619 76 140 0.0 4.0 0.00 0.00 0.00 67 1017.5
20260905075719 76 111 1.0 2.0 0.00 0.00 0.00 68 1017.3
20260905074819 76 116 1.0 2.0 0.00 0.00 0.00 67 1017.5
20260905073919 74 124 1.0 2.0 0.00 0.00 0.00 69 1017.4
20260905073019 73 50 0.0 2.0 0.00 0.00 0.00 69 1017.5
20260905072119 72 89 1.0 2.0 0.00 0.00 0.00 71 1017.4
20260905071219 72 79 1.0 2.0 0.00 0.00 0.00 74 1017.5
20260905070319 71 53 0.0 2.0 0.00 0.00 0.00 76 1017.5
20260905065419 70 68 0.0 2.0 0.00 0.00 0.00 76 1017.4
20260905064519 69 90 0.0 2.0 0.00 0.00 0.00 76 1017.4
20260905063619 69 75 1.0 2.0 0.00 0.00 0.00 77 1017.3
20260905062719 68 68 0.0 2.0 0.00 0.00 0.00 78 1017.2
20260905061819 67 68 0.0 2.0 0.00 0.00 0.00 78 1017.2
20260905060019 66 51 0.0 2.0 0.00 0.00 0.00 79 1017.4
20260905054219 66 68 0.0 2.0 0.00 0.00 0.00 78 1017.4
20260905053319 65 68 0.0 2.0 0.00 0.00 0.00 80 1017.3
20260905052419 65 0 0.0 0.0 0.00 0.00 0.00 83 1017.4
20260905051519 65 68 0.0 2.0 0.00 0.00 0.00 82 1017.1
20260905050619 66 0 0.0 0.0 0.00 0.00 0.00 81 1016.9
20260905045719 66 0 0.0 0.0 0.00 0.00 0.00 82 1016.9
20260905044819 65 0 0.0 0.0 0.00 0.00 0.00 81 1016.8
20260905043919 65 59 0.0 2.0 0.00 0.00 0.00 82 1016.7
20260905043019 66 46 0.0 2.0 0.00 0.00 0.00 81 1016.9
20260905042119 66 45 0.0 2.0 0.00 0.00 0.00 80 1016.9
20260905041219 66 39 0.0 2.0 0.00 0.00 0.00 77 1016.9
20260905035419 66 45 1.0 2.0 0.00 0.00 0.00 77 1016.8
20260905034519 66 45 0.0 2.0 0.00 0.00 0.00 78 1016.7
20260905033619 67 46 0.0 2.0 0.00 0.00 0.00 78 1016.8
20260905032719 66 45 0.0 2.0 0.00 0.00 0.00 76 1016.8
20260905031819 66 46 0.0 2.0 0.00 0.00 0.00 79 1016.9
20260905030919 66 46 0.0 2.0 0.00 0.00 0.00 77 1016.9
20260905030019 66 46 0.0 2.0 0.00 0.00 0.00 77 1016.7
20260905025119 67 40 0.0 2.0 0.00 0.00 0.00 77 1016.9
20260905024219 67 44 1.0 2.0 0.00 0.00 0.00 76 1016.9
20260905023319 67 45 0.0 2.0 0.00 0.00 0.00 76 1017.0
20260905022419 67 45 1.0 2.0 0.00 0.00 0.00 76 1016.9
20260905021519 67 46 0.0 2.0 0.00 0.00 0.00 77 1016.8
20260905015720 67 45 0.0 2.0 0.00 0.00 0.00 73 1016.8
20260905014819 68 45 0.0 2.0 0.00 0.00 0.00 73 1016.7
20260905013019 68 40 1.0 2.0 0.00 0.00 0.00 72 1016.7
20260905012119 68 45 0.0 2.0 0.00 0.00 0.00 74 1016.8
20260905011219 69 45 0.0 2.0 0.00 0.00 0.00 72 1016.7
20260905010319 69 43 1.0 2.0 0.00 0.00 0.00 73 1016.5
20260905004519 69 46 0.0 2.0 0.00 0.00 0.00 73 1016.7
20260905003619 69 40 0.0 2.0 0.00 0.00 0.00 71 1016.7
20260905002719 69 43 0.0 2.0 0.00 0.00 0.00 71 1017.0
20260905001819 69 43 1.0 2.0 0.00 0.00 0.00 72 1016.9
20260905000919 69 45 1.0 2.0 0.00 0.00 0.00 72 1017.1
20260905000019 69 45 0.0 2.0 0.00 0.00 0.00 74 1017.0
20260904235119 69 0 0.0 0.0 0.00 0.00 0.00 72 1017.1
20260904234219 70 45 0.0 2.0 0.00 0.00 0.00 72 1017.4
20260904233319 70 43 0.0 2.0 0.00 0.00 0.00 72 1017.1
20260904232419 69 51 0.0 2.0 0.00 0.00 0.00 73 1017.4
20260904231519 70 46 0.0 2.0 0.00 0.00 0.00 72 1017.4
20260904230619 70 46 0.0 2.0 0.00 0.00 0.00 72 1017.3
20260904224819 69 112 0.0 2.0 0.00 0.00 0.00 75 1017.3
20260904223919 70 112 0.0 2.0 0.00 0.00 0.00 73 1017.4
20260904221219 70 112 0.0 2.0 0.00 0.00 0.00 73 1017.3
20260904215140 71 82 0.0 2.0 0.00 0.00 0.00 71 1017.5
20260904214241 71 45 0.0 2.0 0.00 0.00 0.00 68 1017.2
20260904213340 72 42 0.0 2.0 0.00 0.00 0.00 68 1017.3
20260904212440 72 5 0.0 2.0 0.00 0.00 0.00 68 1017.3
20260904211540 72 1 0.0 2.0 0.00 0.00 0.00 68 1017.1
20260904210640 72 1 0.0 2.0 0.00 0.00 0.00 67 1017.5
20260904205740 72 1 0.0 2.0 0.00 0.00 0.00 67 1017.3
20260904203940 73 1 0.0 2.0 0.00 0.00 0.00 64 1017.0
20260904203041 74 16 0.0 2.0 0.00 0.00 0.00 63 1017.2
20260904202141 74 54 1.0 2.0 0.00 0.00 0.00 64 1017.2
20260904201241 74 39 0.0 2.0 0.00 0.00 0.00 63 1017.4
20260904200340 74 24 2.0 4.0 0.00 0.00 0.00 63 1017.2
20260904195440 75 16 1.0 4.0 0.00 0.00 0.00 60 1017.3
20260904194540 75 37 1.0 2.0 0.00 0.00 0.00 61 1017.2
20260904193641 76 43 0.0 2.0 0.00 0.00 0.00 61 1016.9
20260904192740 76 27 1.0 2.0 0.00 0.00 0.00 61 1016.7
20260904191841 76 37 1.0 2.0 0.00 0.00 0.00 62 1016.6
20260904185141 76 38 1.0 2.0 0.00 0.00 0.00 63 1016.7
20260904184240 77 43 0.0 2.0 0.00 0.00 0.00 63 1016.6
20260904183341 78 45 1.0 2.0 0.00 0.00 0.00 63 1016.3
20260904181541 78 29 0.0 2.0 0.00 0.00 0.00 65 1016.4
20260904175741 79 32 1.0 2.0 0.00 0.00 0.00 61 1016.2
20260904174841 80 21 0.0 2.0 0.00 0.00 0.00 61 1016.0
20260904173941 82 53 0.0 2.0 0.00 0.00 0.00 61 1015.7
20260904173041 84 41 0.0 2.0 0.00 0.00 0.00 61 1015.9
20260904172141 85 35 1.0 2.0 0.00 0.00 0.00 63 1016.1
20260904170341 86 25 0.0 4.0 0.00 0.00 0.00 59 1016.0
20260904165441 87 51 2.0 4.0 0.00 0.00 0.00 58 1016.0
20260904164541 87 47 2.0 4.0 0.00 0.00 0.00 56 1016.3
20260904163641 88 55 0.0 4.0 0.00 0.00 0.00 54 1016.3
20260904161841 89 39 1.0 7.0 0.00 0.00 0.00 50 1016.1